Flag for U.S.A. Weather past 2 weeks in Bentonville, Arkansas, U.S.A.

Now
55 °F

Scattered clouds.


Feels Like: 52 °F
Forecast: 45 / 55 °F
Wind: 15 mph from South

Location: Bentonville Weather Observing Station

Current Time: Dec 26, 2014 at 11:12:44 AM

Latest Report: Dec 26, 2014 at 10:35 AM


Visibility: 10 mi

Pressure: 30.03 "Hg

Humidity: 63%

Dew point: 43 °F

Location of BentonvilleLocation

Historic Weather in Bentonville — Graph

°F

Bentonville temperature yesterday

Maximum temperature yesterday: 54 °F (at 2:15 PM)
Minimum temperature yesterday: 30 °F (at 12:55 AM)
Average temperature yesterday: 42 °F

Past Weeks' High & Low Weather Summary

 TemperatureHumidityPressure
High63 °F (Dec 13, 1:35 PM)94% (Dec 13, 8:15 AM)30.34 "Hg (Dec 13, 8:15 AM)
Low28 °F (Dec 16, 9:15 PM)33% (Dec 25, 3:15 PM)29.51 "Hg (Dec 22, 1:55 PM)
Average43 °F78%30.04 "Hg
* Reported Dec 11 9:15 AM — Dec 26 9:55 AM, Bentonville, Weather by CustomWeather, © 2014

Note: Actual official high and low records may vary slightly from our data, if they occured in-between our weather recording intervals... More about our weather records

Advertising

Bentonville weather history for previous 24 hours

 ConditionsComfort  
Time TempWeatherWind HumidityBarometerVisibility
9:55 AM
Dec 26
55 °FPartly sunny.13 mph63%30.03 "Hg10 mi
9:35 AM54 °FSunny.10 mph67%30.03 "Hg10 mi
9:15 AM52 °FSunny.10 mph72%30.02 "Hg10 mi
8:55 AM48 °FSunny.8 mph76%30.02 "Hg10 mi
8:35 AM48 °FSunny.7 mph71%30.02 "Hg10 mi
8:15 AM48 °FPassing clouds.8 mph71%30.02 "Hg10 mi
7:55 AM48 °FPassing clouds.9 mph71%30.01 "Hg10 mi
7:35 AM46 °FSunny.12 mph76%30.01 "Hg10 mi
7:15 AM46 °FPassing clouds.10 mph76%30.00 "Hg10 mi
6:55 AM46 °FPassing clouds.12 mph76%29.99 "Hg10 mi
6:35 AM46 °FPassing clouds.12 mph76%29.99 "Hg10 mi
6:15 AM46 °FPassing clouds.10 mph71%29.99 "Hg10 mi
5:55 AM46 °FClear.10 mph71%29.98 "Hg10 mi
5:35 AM46 °FClear.9 mph71%29.98 "Hg10 mi
5:15 AM46 °FPassing clouds.9 mph71%29.97 "Hg10 mi
4:55 AM46 °FOvercast.10 mph71%29.98 "Hg10 mi
4:35 AM46 °FPassing clouds.12 mph71%29.97 "Hg10 mi
4:15 AM46 °FPassing clouds.13 mph66%29.97 "Hg10 mi
3:55 AM46 °FClear.10 mph66%29.97 "Hg10 mi
3:35 AM46 °FClear.10 mph66%29.98 "Hg10 mi
3:15 AM46 °FClear.12 mph66%29.97 "Hg10 mi
2:55 AM46 °FClear.13 mph62%29.97 "Hg10 mi
2:35 AM46 °FClear.10 mph62%29.96 "Hg10 mi
2:15 AM46 °FClear.12 mph62%29.96 "Hg10 mi
1:55 AM46 °FClear.13 mph62%29.95 "Hg10 mi
1:35 AM46 °FClear.9 mph57%29.95 "Hg10 mi
1:15 AM46 °FClear.10 mph53%29.95 "Hg10 mi
12:55 AM45 °FClear.7 mph57%29.95 "Hg10 mi
12:35 AM46 °FClear.9 mph53%29.95 "Hg10 mi
12:15 AM45 °FClear.8 mph57%29.95 "Hg10 mi
11:55 PM
Dec 25
45 °FClear.10 mph57%29.94 "Hg10 mi
11:35 PM45 °FClear.9 mph57%29.94 "Hg10 mi
11:15 PM45 °FClear.10 mph57%29.94 "Hg10 mi
10:55 PM45 °FClear.9 mph57%29.94 "Hg10 mi
10:35 PM45 °FClear.9 mph57%29.94 "Hg10 mi
9:55 PM46 °FClear.10 mph53%29.94 "Hg10 mi
9:35 PM46 °FClear.12 mph53%29.93 "Hg10 mi
8:35 PM46 °FClear.12 mph50%29.92 "Hg10 mi
8:15 PM48 °FClear.15 mph46%29.92 "Hg10 mi
7:55 PM48 °FClear.12 mph46%29.91 "Hg10 mi
7:35 PM48 °FClear.13 mph46%29.91 "Hg10 mi
7:15 PM48 °FClear.14 mph43%29.91 "Hg10 mi
6:55 PM48 °FClear.13 mph43%29.91 "Hg10 mi
6:35 PM48 °FClear.9 mph43%29.91 "Hg10 mi
6:15 PM48 °FClear.12 mph43%29.91 "Hg10 mi
5:55 PM48 °FClear.12 mph43%29.90 "Hg10 mi
5:35 PM48 °FClear.12 mph43%29.89 "Hg10 mi
5:15 PM48 °FClear.12 mph43%29.89 "Hg10 mi
4:55 PM50 °FSunny.13 mph40%29.89 "Hg10 mi
4:15 PM54 °FSunny.14 mph33%29.89 "Hg10 mi
3:55 PM54 °FSunny.17 mph33%29.89 "Hg10 mi
3:35 PM54 °FSunny.13 mph35%29.89 "Hg10 mi
3:15 PM54 °FSunny.18 mph33%29.89 "Hg10 mi
2:55 PM54 °FSunny.20 mph35%29.89 "Hg10 mi
2:35 PM52 °FSunny.13 mph41%29.89 "Hg10 mi
2:15 PM54 °FSunny.21 mph38%29.89 "Hg10 mi
1:55 PM52 °FSunny.18 mph38%29.90 "Hg10 mi
1:35 PM52 °FSunny.21 mph41%29.91 "Hg10 mi
1:15 PM52 °FSunny.21 mph38%29.92 "Hg10 mi
12:55 PM52 °FSunny.20 mph38%29.93 "Hg10 mi
12:35 PM52 °FSunny.17 mph38%29.94 "Hg10 mi
12:15 PM50 °FSunny.24 mph40%29.94 "Hg10 mi
11:55 AM48 °FSunny.14 mph46%29.94 "Hg10 mi
11:35 AM48 °FSunny.17 mph46%29.95 "Hg10 mi
11:15 AM46 °FSunny.17 mph50%29.95 "Hg10 mi
Weather by CustomWeather, © 2014

See weather overviewHow to use our weather pages